TimeEET,TemperatureF,Dew PointF,Humidity,Sea Level PressureIn,VisibilityMPH,Wind Direction,Wind SpeedMPH,Gust SpeedMPH,PrecipitationIn,Events,Conditions,WindDirDegrees,DateUTC
12:50 AM,46.4,41.0,81,30.01,5.0,SE,9.2,-,N/A,,Overcast,140,2013-02-18 22:50:00
1:50 AM,46.4,41.0,81,30.01,5.0,SE,5.8,-,N/A,,Overcast,130,2013-02-18 23:50:00
2:50 AM,48.2,41.0,76,29.98,5.0,ESE,6.9,-,N/A,Rain,Light Rain,120,2013-02-19 00:50:00
3:50 AM,46.4,41.0,81,29.98,5.0,SE,5.8,-,N/A,Rain,Light Rain,130,2013-02-19 01:50:00
4:50 AM,46.4,42.8,87,29.95,5.0,East,5.8,-,N/A,Rain,Light Rain,80,2013-02-19 02:50:00
6:20 AM,46.4,42.8,87,29.95,5.0,East,6.9,-,N/A,Rain,Light Rain,90,2013-02-19 04:20:00
6:50 AM,48.2,42.8,82,29.92,5.0,East,9.2,-,N/A,Rain,Light Rain,80,2013-02-19 04:50:00
7:20 AM,48.2,42.8,82,29.92,2.5,East,9.2,-,N/A,Rain,Light Rain,90,2013-02-19 05:20:00
7:50 AM,46.4,42.8,87,29.92,1.9,East,9.2,-,N/A,Rain,Light Rain,100,2013-02-19 05:50:00
8:20 AM,46.4,42.8,87,29.92,1.9,East,10.4,-,N/A,Rain,Rain,100,2013-02-19 06:20:00
8:50 AM,46.4,42.8,87,29.89,1.9,ESE,9.2,-,N/A,Rain,Rain,110,2013-02-19 06:50:00
9:20 AM,48.2,42.8,82,29.89,1.9,East,11.5,-,N/A,Rain,Rain,80,2013-02-19 07:20:00
9:50 AM,48.2,44.6,87,29.89,1.9,East,12.7,-,N/A,Rain,Rain,90,2013-02-19 07:50:00
10:20 AM,48.2,44.6,87,29.89,1.9,ESE,8.1,-,N/A,Rain,Rain,110,2013-02-19 08:20:00
10:50 AM,48.2,44.6,87,29.86,1.9,SSW,4.6,-,N/A,Rain,Rain,200,2013-02-19 08:50:00
11:20 AM,46.4,44.6,93,29.86,1.9,West,8.1,-,N/A,Rain,Rain,280,2013-02-19 09:20:00
11:50 AM,46.4,42.8,87,29.89,2.5,West,10.4,-,N/A,Rain,Light Rain,280,2013-02-19 09:50:00
12:20 PM,46.4,42.8,87,29.89,5.0,West,11.5,-,N/A,Rain,Light Rain,280,2013-02-19 10:20:00
12:50 PM,48.2,42.8,82,29.86,6.2,West,16.1,-,N/A,,Mostly Cloudy,270,2013-02-19 10:50:00
1:20 PM,48.2,42.8,82,29.86,6.2,West,16.1,-,N/A,,Mostly Cloudy,270,2013-02-19 11:20:00
1:50 PM,48.2,41.0,76,29.86,6.2,West,17.3,-,N/A,,Scattered Clouds,280,2013-02-19 11:50:00
2:50 PM,50.0,39.2,66,29.83,6.2,West,13.8,-,N/A,,Scattered Clouds,280,2013-02-19 12:50:00
3:20 PM,50.0,39.2,66,29.83,6.2,West,17.3,-,N/A,,Scattered Clouds,280,2013-02-19 13:20:00
3:50 PM,50.0,39.2,66,29.83,6.2,West,15.0,-,N/A,,Scattered Clouds,280,2013-02-19 13:50:00
4:20 PM,50.0,39.2,66,29.83,6.2,WNW,10.4,-,N/A,,Scattered Clouds,300,2013-02-19 14:20:00
4:50 PM,48.2,37.4,66,29.80,6.2,WNW,11.5,-,N/A,,Scattered Clouds,290,2013-02-19 14:50:00
5:20 PM,48.2,37.4,66,29.80,6.2,West,9.2,-,N/A,,Scattered Clouds,270,2013-02-19 15:20:00
5:50 PM,48.2,39.2,71,29.80,6.2,West,8.1,-,N/A,,Scattered Clouds,270,2013-02-19 15:50:00
6:20 PM,46.4,39.2,76,29.80,6.2,NNW,5.8,-,N/A,,Scattered Clouds,330,2013-02-19 16:20:00
6:50 PM,46.4,39.2,76,29.83,6.2,NNW,4.6,-,N/A,,Mostly Cloudy,340,2013-02-19 16:50:00
7:20 PM,46.4,39.2,76,29.83,6.2,WNW,5.8,-,N/A,,Mostly Cloudy,290,2013-02-19 17:20:00
7:50 PM,46.4,39.2,76,29.83,6.2,WNW,8.1,-,N/A,,Mostly Cloudy,290,2013-02-19 17:50:00
8:50 PM,46.4,37.4,71,29.83,6.2,West,6.9,-,N/A,,Scattered Clouds,280,2013-02-19 18:50:00
9:50 PM,42.8,37.4,81,29.86,6.2,West,6.9,-,N/A,,Scattered Clouds,260,2013-02-19 19:50:00
10:50 PM,42.8,37.4,81,29.86,6.2,WSW,4.6,-,N/A,,Mostly Cloudy,240,2013-02-19 20:50:00
11:50 PM,41.0,37.4,87,29.86,6.2,West,6.9,-,N/A,,Scattered Clouds,260,2013-02-19 21:50:00